Location: *
(34.0486°S, 61.7880°E)
Time: 16:19:41
(UTC+00:00)

YAOGAN 1 - Pass Details

Date: 01 April 2020
Orbit: 618 x 620 km, 97.9° (Epoch: 26 May)

Event Time Altitude Azimuth Distance (km) Brightness Sun altitude
Rises 15:51:18 0° 179° (S) 2,929 6.2 -26.4°
Reaches altitude 10° 15:53:39 10° 188° (S) 2,014 5.4 -26.8°
Maximum altitude 15:57:35 34° 252° (WSW) 1,046 4.2 -27.6°
Drops below altitude 10° 16:01:30 10° 316° (NW) 1,990 5.5 -28.4°
Sets 16:03:49 0° 326° (NW) 2,888 6.2 -28.9°
